Location: La Haie
(47.3985°N, 1.4048°W)
Time: 23:29:15
(UTC+00:00)

Daily predictions for brighter satellites

Satellite Brightness Start Highest point End
(mag) Time Altitude Azimuth Time Altitude Azimuth Time Altitude Azimuth
IGS 5A 4.3 20:22:09 10° S 20:26:11 50° W 20:30:15 10° NNW
Cosmos 1980 Rocket 2.6 20:23:54 10° S 20:29:06 41° ESE 20:34:22 10° NE
CARTOSAT-1 4.2 20:26:53 10° SE 20:30:55 40° ENE 20:34:57 10° N
Cosmos 2228 Rocket 4.5 20:29:44 10° SE 20:33:17 23° E 20:36:50 10° NE
Cosmos 1464 Rocket 4.1 20:28:09 10° S 20:34:13 60° E 20:40:16 10° NNE
ARGOS Delta rocket 4.2 20:31:00 10° NNE 20:36:31 71° E 20:41:54 10° S
Cosmos 2344 3.6 20:29:38 10° SSW 20:36:57 55° ESE 20:44:19 10° NE
ISS -3.1 20:34:09 10° WNW 20:37:28 54° NNE 20:40:45 10° E
IRS-1A Rocket 4.4 20:31:47 10° SSE 20:37:28 87° WSW 20:43:18 10° NNW
Cosmos 2369 3.8 20:33:14 10° S 20:38:43 55° ESE 20:44:14 10° NE
Cosmos 1354 Rocket 4.4 20:34:46 10° S 20:39:42 42° ESE 20:44:42 10° NE
Cosmos 773 Rocket 4.5 20:35:18 10° NNW 20:40:23 48° ENE 20:45:19 10° SE
Spot 2 Rocket 4.4 20:36:00 10° SE 20:40:31 35° ENE 20:45:04 10° N
Cosmos 1536 2.9 20:37:02 10° N 20:41:05 87° WSW 20:45:06 10° S
SPOT 3 Rocket 3.8 20:36:37 10° SE 20:41:36 54° ENE 20:46:38 10° N
ATLAS 2AS CENTAUR R/B 3.3 20:34:29 10° S 20:41:42 43° ESE 20:48:45 10° NE
Okean 1 4.0 20:40:49 10° SSE 20:44:27 35° E 20:48:08 10° NNE
Cosmos 1486 Rocket 4.1 20:39:48 10° SSW 20:45:06 89° WNW 20:50:25 10° NNE
NOSS 3-4 (A) 3.6 20:40:35 10° SW 20:46:18 75° NW 20:52:34 10° NE
H-2A R/B 2.7 20:42:19 10° N 20:46:21 58° WNW 20:50:22 10° SSW
NOSS 3-4 (C) 3.6 20:40:37 10° SW 20:46:22 76° NW 20:52:37 10° NE
Nadezhda 4 Rocket 4.1 20:41:29 10° N 20:47:41 64° ENE 20:53:46 10° SSE
Cosmos 1697 Rocket 2.9 20:42:11 10° SSW 20:47:51 79° WNW 20:53:33 10° NNE
RESURS DK-1 3.2 20:44:22 10° S 20:47:57 29° ESE 20:51:31 10° NE
SL-4 R/B 3.1 20:44:06 10° WNW 20:48:22 38° SW 20:52:09 11° SSE
Cosmos 2360 4.5 20:47:57 10° SSW 20:53:38 77° WNW 20:59:21 10° NNE
ATLAS CENTAUR R/B 4.2 20:52:24 10° NNW 20:55:14 15° NNE 20:58:01 10° ENE
Cosmos 2297 Rocket 4.0 20:51:16 10° NW 20:55:54 27° WSW 21:00:31 10° SSW
ARIANE 5 R/B 4.1 20:53:39 11° ESE 20:57:07 25° ENE 21:00:47 10° N
Cosmos 44 Rocket 4.0 20:52:47 10° NNW 20:57:19 43° NE 21:01:28 12° ESE
MetOp-B 4.2 20:53:04 10° SSE 20:58:26 89° WSW 21:03:50 10° NNW
Cosmos 1184 Rocket 2.9 21:00:43 10° SSW 21:03:42 66° WNW 21:06:43 10° N
ATLAS 3B R/B 3.5 20:59:05 10° NW 21:06:09 49° NE 21:13:24 10° ESE
Meteor 2-9 Rocket 4.3 21:01:10 10° N 21:06:58 74° ENE 21:12:06 13° SSE
Cosmos 1975 3.6 21:07:05 10° N 21:10:54 37° ENE 21:13:33 17° SE
Timation 2 Rocket 4.3 21:04:25 10° NNW 21:11:01 77° WSW 21:17:06 13° SSE
Cosmos 2026 Rocket 4.4 21:06:05 10° N 21:12:04 50° ENE 21:17:00 15° SSE
Cosmos 389 Rocket 3.6 21:08:59 10° NNW 21:12:18 40° W 21:15:36 10° SSW
Cosmos 1503 Rocket 4.1 21:09:07 10° SSW 21:14:24 84° WNW 21:19:47 10° NNE
ERS-1 Rocket 3.2 21:12:32 15° SSE 21:16:33 59° ENE 21:21:31 10° N
CZ-4B R/B 3.3 21:14:09 10° N 21:16:58 29° WNW 21:19:44 10° SW
SL-16 R/B 3.2 21:13:28 15° SSE 21:17:03 27° ESE 21:21:44 10° NE
BREEZE-M (TANK) 4.3 21:12:58 10° W 21:17:16 82° N 21:35:54 10° E
Cosmos 1933 Rocket 4.4 21:13:59 10° NNW 21:18:19 49° W 21:22:36 10° SSW
Helios 1A Rocket 2.8 21:19:01 16° SSE 21:22:08 89° ENE 21:26:10 10° NNW
CZ-2C R/B 4.1 21:19:27 10° NNE 21:24:06 49° E 21:27:47 16° S
Cosmos 1733 Rocket 4.0 21:21:03 10° N 21:25:09 35° ENE 21:27:44 19° SE
OE (NEXTSAT) 4.2 21:26:06 10° WSW 21:29:22 59° S 21:32:08 14° E
Cosmos 1340 4.5 21:26:40 10° SW 21:30:02 31° WNW 21:33:24 10° N
SJ 16-02 1.4 21:27:20 10° SSW 21:31:43 81° WNW 21:36:07 10° NNE
Meteor 1-18 Rocket 4.2 21:26:49 11° S 21:32:17 69° E 21:37:52 10° NNE
Cosmos 2292 Rocket 2.5 21:33:54 10° N 21:36:56 80° E 21:38:15 30° SSE
Cosmos 2034 Rocket 4.3 21:31:01 10° SSW 21:37:17 69° W 21:43:39 10° N
Cosmos 2278 3.7 21:31:43 10° SSW 21:37:22 84° ESE 21:43:05 10° NNE
ASTRO F (AKARI) 4.1 21:37:45 29° SSE 21:39:12 83° ENE 21:42:23 10° NNW
Cosmos 1862 Rocket 4.4 21:37:31 22° SE 21:39:38 35° E 21:43:44 10° NNE
BREEZE M DEB (TANK) 4.0 21:37:23 10° WNW 21:41:37 64° SSW 21:55:47 13° SE
Cosmos 2360 Rocket 3.5 21:40:43 18° ESE 21:42:16 20° E 21:46:16 10° NE
Meteor 2-21 Rocket 4.5 21:36:36 10° N 21:42:42 83° W 21:47:35 17° S
Cosmos 1726 4.5 21:42:15 10° NE 21:43:47 12° ENE 21:45:09 10° E
Cosmos 2263 Rocket 2.4 21:39:50 10° NNW 21:45:22 65° WSW 21:49:11 20° S
NOSS 2-1 (C) 3.0 21:46:44 26° S 21:48:14 46° SE 21:51:20 10° NE
SPOT 5 3.3 21:45:43 17° S 21:49:45 66° WSW 21:54:52 10° NNW
Cosmos 482 Debris 4.4 21:47:36 10° WNW 21:50:35 50° SSW 21:52:24 28° SSE
Terra 1.8 21:47:56 23° SSE 21:50:59 88° WSW 21:55:47 10° NNW
Cosmos 1441 Rocket 4.0 21:51:03 28° SE 21:52:00 32° E 21:55:21 10° NNE
Resurs 01 Rocket 4.1 21:49:33 10° SW 21:52:16 16° W 21:55:01 10° NW
Cosmos 1346 Rocket 2.8 21:50:23 25° S 21:52:35 67° E 21:56:36 10° NNE
SAR-Lupe-1 4.5 21:50:16 10° NNE 21:53:43 43° E 21:54:46 33° SE
Cosmos 2279 Rocket 4.2 21:53:29 22° SSE 21:57:28 57° E 22:03:34 10° NNE
NOSS 2-1 (D) 2.7 21:56:58 25° SSW 21:58:40 61° SE 22:01:51 10° NE
USA 215 4.1 21:56:10 10° ENE 22:01:39 28° SE 22:03:43 24° SSE
Iridium 2 4.0 21:59:30 10° N 22:03:11 51° E 22:04:23 35° SE
Cosmos 2228 Rocket 4.3 22:06:56 10° SW 22:11:14 40° WNW 22:15:33 10° N
Cosmos 1378 4.2 22:08:55 15° SW 22:11:40 42° WNW 22:15:11 10° N
Iridium 4 Rocket 4.4 22:07:52 10° NNE 22:11:57 30° E 22:13:44 24° ESE
Cosmos 1980 Rocket 3.7 22:07:56 10° WSW 22:13:09 38° NW 22:18:25 10° NNE
Cosmos 1898 Rocket 4.3 22:11:50 28° SE 22:13:31 34° ESE 22:18:17 10° NE
SL-24 R/B - RUBIN 2 3.9 22:09:23 10° NW 22:13:40 54° WSW 22:15:31 31° S
ISS -3.1 22:11:02 10° WNW 22:14:10 37° SW 22:14:21 37° SSW
Okean 1-7 4.0 22:17:25 29° ESE 22:18:28 33° E 22:22:23 10° NNE
Cosmos 2322 Rocket 2.2 22:18:02 25° S 22:21:17 61° ESE 22:26:49 10° NNE
Cosmos 2180 Rocket 4.5 22:21:19 27° S 22:24:45 69° E 22:30:52 10° NNE
Cosmos 1844 Rocket 2.9 22:19:30 10° NNW 22:25:04 62° ENE 22:27:57 28° SE
RESURS DK-1 4.2 22:22:09 10° WSW 22:25:52 32° NW 22:29:36 10° NNE
Cosmos 2333 Rocket 3.3 22:25:18 24° ESE 22:26:23 26° ESE 22:30:56 10° NE
Cosmos 1805 3.2 22:23:29 10° N 22:27:24 77° E 22:28:28 46° SSE
Meteor 2-4 Rocket 4.3 22:22:24 12° SSW 22:27:42 55° WNW 22:33:15 10° N
BREEZE-M DEB (TANK) 2.5 22:28:45 10° W 22:31:14 49° SSW 22:31:52 43° SSE
ATLAS 2AS CENTAUR R/B 3.6 22:24:54 10° WSW 22:32:35 59° NW 22:39:59 10° NE
ARIANE 5 R/B 3.6 22:31:11 24° SSW 22:33:22 40° W 22:37:38 10° NNW
ATLAS CENTAUR R/B 2.5 22:30:31 10° NNW 22:35:14 45° NE 22:37:50 23° ESE
USA 267 4.0 22:31:54 10° E 22:38:12 52° NNE 22:44:31 10° NW
Cosmos 44 Rocket 4.4 22:34:34 10° NW 22:38:41 30° WSW 22:40:10 25° SSW
Cosmos 1733 3.2 22:36:45 10° NNW 22:40:31 74° W 22:41:23 50° SSW
Cosmos 1766 3.4 22:38:40 10° N 22:42:34 59° ENE 22:43:23 47° SE
Cosmos 2219 Rocket 3.2 22:44:47 26° ESE 22:45:42 27° ESE 22:50:19 10° NE
Cosmos 1844 3.8 22:42:58 10° NNW 22:48:49 78° ENE 22:51:27 34° SE
Cosmos 1703 Rocket 3.6 22:48:16 46° SSE 22:49:24 64° E 22:53:48 10° NNE
Meteor 1-4 Rocket 3.1 22:49:43 10° NNW 22:53:03 44° W 22:53:35 40° WSW
ATLAS 3B R/B 3.2 22:49:56 10° NW 22:57:03 53° WSW 23:00:39 30° S
NOSS 2-1 (E) 4.3 22:55:17 12° WSW 22:58:02 36° NW 23:01:09 10° NNE
Cosmos 1707 4.2 23:00:36 24° E 23:00:42 24° E 23:03:50 10° NE
SL-16 R/B 2.9 22:55:16 10° SW 23:00:48 54° WNW 23:06:23 10° NNE
Cosmos 1655 Rocket 3.9 22:55:04 10° N 23:01:21 86° W 23:04:10 35° S
Cosmos 2237 4.4 22:58:24 20° SW 23:02:24 74° WNW 23:08:09 10° NNE
Cosmos 1782 Rocket 3.6 22:59:28 10° N 23:03:50 70° E 23:04:50 50° SE
Meteor 2-10 4.2 23:01:46 10° NNW 23:06:57 61° W 23:08:49 37° SSW
ERS-2 3.1 23:03:49 10° NNE 23:06:52 33° E 23:06:52 33° E
CZ-4C R/B 3.4 23:00:18 10° NW 23:07:13 58° NE 23:14:17 14° ESE
NOSS 3-1 (C) 4.2 23:00:41 10° NW 23:08:00 75° NE 23:14:02 22° SE
SJ 16-02 4.3 23:09:23 10° WNW 23:11:02 12° NW 23:12:42 10° NNW
Gblst 52 Del rocket 4.2 23:06:55 10° WSW 23:13:27 81° SSE 23:19:14 10° ENE
Cosmos 1908 Rocket 4.1 23:10:30 10° NNW 23:14:41 49° W 23:15:46 39° SW
Cosmos 2237 Rocket 4.2 23:14:56 12° ESE 23:15:49 12° E 23:18:06 10° ENE
Meteor 1-15 Rocket 4.3 23:12:37 10° NNW 23:18:15 69° W 23:20:26 38° SSW
Cosmos 1470 2.8 23:14:46 10° N 23:18:37 60° E 23:19:01 56° ESE
COSMOS 2428 3.4 23:17:53 32° SE 23:18:59 35° ESE 23:24:06 10° NE
Cosmos 1726 2.3 23:15:33 10° NNW 23:19:10 56° W 23:19:26 54° WSW
Cosmos 1300 Rocket 3.9 23:15:40 10° N 23:19:57 55° ENE 23:20:51 45° ESE
Cosmos 2242 Rocket 3.6 23:21:24 48° SSW 23:22:38 78° W 23:27:12 10° N
ALOS 2 2.6 23:22:00 53° SE 23:22:58 76° ENE 23:27:23 10° N
Cosmos 1937 Rocket 3.5 23:22:46 38° SSW 23:24:49 85° WNW 23:30:09 10° NNE
Cosmos 2360 Rocket 2.4 23:22:24 26° SW 23:25:40 70° WNW 23:31:20 10° NNE
Cosmos 1242 Rocket 3.6 23:22:29 10° N 23:25:48 33° ENE 23:26:07 32° E
Okean 2 Rocket 4.2 23:22:37 10° N 23:26:49 36° ENE 23:28:05 30° ESE
Terra 4.3 23:28:02 10° WSW 23:29:27 11° W 23:30:51 10° WNW
Cosmos 2333 4.1 23:29:02 40° SSW 23:31:11 82° ESE 23:36:50 10° NNE
Cosmos 1867 4.0 23:33:44 41° SE 23:34:35 44° ESE 23:39:47 10° NE
Cosmos 1626 3.4 23:37:36 28° E 23:37:36 28° E 23:40:40 10° NNE
Cosmos 1842 3.4 23:38:57 55° WSW 23:39:27 61° W 23:43:19 10° N
Cosmos 1680 Rocket 4.4 23:37:34 10° NW 23:42:24 37° WSW 23:43:44 32° SW
Meteor 2-17 Rocket 4.4 23:37:14 10° N 23:43:25 82° W 23:45:46 40° S
Cosmos 1953 4.1 23:40:25 10° NNE 23:43:37 22° ENE 23:44:46 19° E
Cosmos 2278 Rocket 3.2 23:39:45 10° NNW 23:45:08 42° NE 23:48:51 19° ESE
USA 215 3.2 23:38:38 10° NE 23:45:15 86° SE 23:50:59 14° SW
Cosmos 1674 3.0 23:50:45 49° E 23:50:45 49° E 23:54:24 10° NNE
Cosmos 1818 4.1 23:46:43 10° NW 23:51:50 42° WSW 23:52:45 38° SW
Sich 1 Rocket 3.5 23:48:47 10° N 23:53:13 82° E 23:54:00 60° SSE
